Time,TemperatureF,DewpointF,PressureIn,WindDirection,WindDirectionDegrees,WindSpeedMPH,WindSpeedGustMPH,Humidity,HourlyPrecipIn,Conditions,Clouds,dailyrainin,SoftwareType,DateUTC
2013-07-28 00:02:00,83.0,76.0,26.41,SSW,207,6.0,9.0,80,0.00,,,0.00,,2013-07-28 04:02:00,
2013-07-28 00:12:00,83.0,76.0,26.41,SSW,213,4.0,7.0,80,0.00,,,0.00,,2013-07-28 04:12:00,
2013-07-28 00:22:00,83.0,76.0,26.41,SSW,206,4.0,7.0,80,0.00,,,0.00,,2013-07-28 04:22:00,
2013-07-28 00:32:00,83.0,76.0,26.41,SW,224,4.0,7.0,80,0.00,,,0.00,,2013-07-28 04:32:00,
2013-07-28 00:43:00,83.0,76.0,26.41,WSW,242,5.0,7.0,80,0.00,,,0.00,,2013-07-28 04:43:00,
2013-07-28 00:53:00,83.0,76.0,26.41,WSW,256,3.0,6.0,80,0.00,,,0.00,,2013-07-28 04:53:00,
2013-07-28 01:02:00,83.0,76.0,26.41,WSW,244,3.0,6.0,80,0.00,,,0.00,,2013-07-28 05:02:00,
2013-07-28 01:12:00,82.0,73.0,26.41,NNW,340,5.0,9.0,75,0.00,,,0.00,,2013-07-28 05:12:00,
2013-07-28 01:22:00,82.0,74.0,26.41,NNW,343,6.0,10.0,77,0.00,,,0.00,,2013-07-28 05:22:00,
2013-07-28 01:32:00,82.0,75.0,26.41,WNW,296,5.0,10.0,79,0.00,,,0.00,,2013-07-28 05:32:00,
2013-07-28 01:43:00,82.0,74.0,26.41,West,277,0.0,10.0,78,0.00,,,0.00,,2013-07-28 05:43:00,
2013-07-28 01:52:00,82.0,75.0,26.41,West,280,0.0,5.0,79,0.00,,,0.00,,2013-07-28 05:52:00,
2013-07-28 02:02:00,81.0,74.0,26.41,West,280,0.0,0.0,80,0.00,,,0.00,,2013-07-28 06:02:00,
2013-07-28 02:12:00,81.0,75.0,26.41,West,280,0.0,0.0,81,0.00,,,0.00,,2013-07-28 06:12:00,
2013-07-28 02:22:00,81.0,75.0,26.41,West,280,0.0,0.0,81,0.00,,,0.00,,2013-07-28 06:22:00,
2013-07-28 02:32:00,80.0,74.0,26.41,West,280,3.0,6.0,81,0.00,,,0.00,,2013-07-28 06:32:00,
2013-07-28 02:43:00,81.0,74.0,26.41,WNW,283,3.0,6.0,80,0.00,,,0.00,,2013-07-28 06:43:00,
2013-07-28 02:52:00,81.0,74.0,26.41,WNW,283,5.0,6.0,80,0.00,,,0.00,,2013-07-28 06:52:00,
2013-07-28 03:02:00,82.0,76.0,26.41,WNW,284,3.0,6.0,81,0.00,,,0.00,,2013-07-28 07:02:00,
2013-07-28 03:12:00,82.0,75.0,26.41,WNW,284,3.0,6.0,80,0.00,,,0.00,,2013-07-28 07:12:00,
2013-07-28 03:23:00,82.0,75.0,26.41,WNW,284,0.0,4.0,80,0.00,,,0.00,,2013-07-28 07:23:00,
2013-07-28 03:32:00,82.0,75.0,26.41,WNW,284,0.0,4.0,80,0.00,,,0.00,,2013-07-28 07:32:00,
2013-07-28 03:43:00,81.0,74.0,26.41,WNW,283,0.0,0.0,79,0.00,,,0.00,,2013-07-28 07:43:00,
2013-07-28 03:53:00,81.0,74.0,26.41,WNW,283,0.0,0.0,79,0.00,,,0.00,,2013-07-28 07:53:00,
2013-07-28 04:02:00,81.0,73.0,26.41,WNW,282,1.0,3.0,78,0.00,,,0.00,,2013-07-28 08:02:00,
2013-07-28 04:12:00,82.0,74.0,26.41,West,270,3.0,4.0,78,0.00,,,0.00,,2013-07-28 08:12:00,
2013-07-28 04:22:00,82.0,74.0,26.41,West,260,2.0,4.0,78,0.00,,,0.00,,2013-07-28 08:22:00,
2013-07-28 04:33:00,82.0,74.0,26.41,West,259,0.0,5.0,78,0.00,,,0.00,,2013-07-28 08:33:00,
2013-07-28 04:42:00,82.0,74.0,26.41,WSW,245,2.0,5.0,78,0.00,,,0.00,,2013-07-28 08:42:00,
2013-07-28 04:53:00,82.0,75.0,26.41,WSW,244,3.0,4.0,79,0.00,,,0.00,,2013-07-28 08:53:00,
2013-07-28 05:02:00,82.0,75.0,26.41,WSW,244,0.0,4.0,79,0.00,,,0.00,,2013-07-28 09:02:00,
2013-07-28 05:12:00,82.0,75.0,26.41,WSW,244,2.0,4.0,79,0.00,,,0.00,,2013-07-28 09:12:00,
2013-07-28 05:22:00,82.0,75.0,26.41,WSW,244,2.0,4.0,79,0.00,,,0.00,,2013-07-28 09:22:00,
2013-07-28 05:32:00,82.0,75.0,26.41,WSW,240,1.0,5.0,79,0.00,,,0.00,,2013-07-28 09:32:00,
2013-07-28 05:43:00,82.0,75.0,26.41,South,186,5.0,7.0,80,0.00,,,0.00,,2013-07-28 09:43:00,
2013-07-28 05:53:00,82.0,76.0,26.41,SSE,159,5.0,9.0,81,0.00,,,0.00,,2013-07-28 09:53:00,
2013-07-28 06:02:00,82.0,76.0,26.41,SE,140,8.0,15.0,81,0.00,,,0.00,,2013-07-28 10:02:00,
2013-07-28 06:12:00,82.0,76.0,26.41,SE,138,4.0,16.0,81,0.00,,,0.00,,2013-07-28 10:12:00,
2013-07-28 06:22:00,81.0,74.0,26.41,SSW,202,5.0,7.0,80,0.00,,,0.00,,2013-07-28 10:22:00,
2013-07-28 06:33:00,81.0,74.0,26.41,SSW,211,6.0,10.0,79,0.00,,,0.00,,2013-07-28 10:33:00,
2013-07-28 06:42:00,82.0,74.0,26.41,SSW,195,7.0,11.0,78,0.00,,,0.00,,2013-07-28 10:42:00,
2013-07-28 06:52:00,82.0,74.0,26.41,SSW,201,9.0,12.0,78,0.00,,,0.00,,2013-07-28 10:52:00,
2013-07-28 07:12:00,82.0,74.0,26.41,South,190,9.0,13.0,77,0.00,,,0.00,,2013-07-28 11:12:00,
2013-07-28 07:22:00,82.0,74.0,26.41,SSW,200,8.0,13.0,78,0.00,,,0.00,,2013-07-28 11:22:00,
2013-07-28 07:33:00,82.0,75.0,26.41,South,182,9.0,13.0,79,0.00,,,0.00,,2013-07-28 11:33:00,
2013-07-28 07:43:00,82.0,75.0,26.41,SSW,194,10.0,12.0,79,0.00,,,0.00,,2013-07-28 11:43:00,
2013-07-28 07:53:00,82.0,75.0,26.41,SSW,199,9.0,12.0,79,0.00,,,0.00,,2013-07-28 11:53:00,
2013-07-28 08:02:00,82.0,74.0,26.41,SSW,198,7.0,12.0,78,0.00,,,0.00,,2013-07-28 12:02:00,
2013-07-28 08:12:00,82.0,74.0,26.41,SW,218,6.0,10.0,78,0.00,,,0.00,,2013-07-28 12:12:00,
2013-07-28 08:22:00,83.0,74.0,26.41,SSW,204,5.0,11.0,75,0.00,,,0.00,,2013-07-28 12:22:00,
2013-07-28 08:33:00,83.0,74.0,26.41,SSW,204,2.0,9.0,75,0.00,,,0.00,,2013-07-28 12:33:00,
2013-07-28 08:43:00,83.0,74.0,26.41,SW,215,5.0,7.0,74,0.00,,,0.00,,2013-07-28 12:43:00,
2013-07-28 08:53:00,83.0,73.0,26.41,SSW,213,5.0,7.0,73,0.00,,,0.00,,2013-07-28 12:53:00,
2013-07-28 09:02:00,84.0,74.0,26.41,SSW,206,6.0,9.0,72,0.00,,,0.00,,2013-07-28 13:02:00,
2013-07-28 09:12:00,84.0,73.0,26.41,SSW,205,6.0,9.0,70,0.00,,,0.00,,2013-07-28 13:12:00,
2013-07-28 09:22:00,85.0,73.0,26.41,SSW,201,5.0,9.0,68,0.00,,,0.00,,2013-07-28 13:22:00,
2013-07-28 09:32:00,85.0,72.0,26.41,SSW,200,5.0,10.0,65,0.00,,,0.00,,2013-07-28 13:32:00,
2013-07-28 09:43:00,86.0,73.0,26.41,South,186,8.0,12.0,65,0.00,,,0.00,,2013-07-28 13:43:00,
2013-07-28 09:52:00,86.0,74.0,26.41,SSW,212,6.0,11.0,67,0.00,,,0.00,,2013-07-28 13:52:00,
2013-07-28 10:02:00,86.0,74.0,26.41,SSW,208,6.0,10.0,68,0.00,,,0.00,,2013-07-28 14:02:00,
2013-07-28 10:12:00,86.0,73.0,26.41,SSW,204,7.0,11.0,65,0.00,,,0.00,,2013-07-28 14:12:00,
2013-07-28 10:23:00,87.0,75.0,26.41,SSW,203,7.0,11.0,67,0.00,,,0.00,,2013-07-28 14:23:00,
2013-07-28 10:33:00,87.0,75.0,26.41,South,188,7.0,10.0,67,0.00,,,0.00,,2013-07-28 14:33:00,
2013-07-28 10:43:00,87.0,75.0,26.41,SSW,213,6.0,11.0,67,0.00,,,0.00,,2013-07-28 14:43:00,
2013-07-28 10:53:00,87.0,75.0,26.41,SSW,207,5.0,9.0,67,0.00,,,0.00,,2013-07-28 14:53:00,
2013-07-28 11:03:00,87.0,74.0,26.41,SSW,204,5.0,7.0,66,0.00,,,0.00,,2013-07-28 15:03:00,
2013-07-28 11:13:00,88.0,75.0,26.41,SSW,203,4.0,7.0,66,0.00,,,0.00,,2013-07-28 15:13:00,
2013-07-28 11:22:00,88.0,75.0,26.41,SSW,202,1.0,7.0,66,0.00,,,0.00,,2013-07-28 15:22:00,
2013-07-28 11:32:00,89.0,76.0,26.41,SSW,201,4.0,9.0,65,0.00,,,0.00,,2013-07-28 15:32:00,
2013-07-28 11:43:00,89.0,76.0,26.41,SSW,203,4.0,6.0,65,0.00,,,0.00,,2013-07-28 15:43:00,
2013-07-28 11:53:00,90.0,77.0,26.41,SSW,196,6.0,8.0,65,0.00,,,0.00,,2013-07-28 15:53:00,
2013-07-28 12:02:00,90.0,76.0,26.41,South,191,6.0,8.0,64,0.00,,,0.00,,2013-07-28 16:02:00,
2013-07-28 12:12:00,90.0,77.0,26.41,SSW,210,5.0,8.0,65,0.00,,,0.00,,2013-07-28 16:12:00,
2013-07-28 12:22:00,90.0,77.0,26.41,SSW,194,4.0,9.0,66,0.00,,,0.00,,2013-07-28 16:22:00,
2013-07-28 12:33:00,90.0,76.0,26.41,SSW,194,5.0,7.0,64,0.00,,,0.00,,2013-07-28 16:33:00,
2013-07-28 12:43:00,91.0,77.0,26.41,South,189,6.0,11.0,63,0.00,,,0.00,,2013-07-28 16:43:00,
2013-07-28 12:52:00,90.0,76.0,26.41,South,190,5.0,10.0,64,0.00,,,0.00,,2013-07-28 16:52:00,
2013-07-28 13:02:00,90.0,77.0,26.41,SSW,211,5.0,10.0,65,0.00,,,0.00,,2013-07-28 17:02:00,
2013-07-28 13:13:00,91.0,77.0,26.41,SSW,212,5.0,12.0,64,0.00,,,0.00,,2013-07-28 17:13:00,
2013-07-28 13:23:00,91.0,77.0,26.41,SSW,202,6.0,11.0,63,0.00,,,0.00,,2013-07-28 17:23:00,
2013-07-28 13:32:00,91.0,77.0,26.41,South,188,6.0,11.0,64,0.00,,,0.00,,2013-07-28 17:32:00,
2013-07-28 13:43:00,91.0,77.0,26.41,South,189,4.0,9.0,64,0.00,,,0.00,,2013-07-28 17:43:00,
2013-07-28 13:53:00,91.0,78.0,26.41,SSW,202,5.0,8.0,65,0.00,,,0.00,,2013-07-28 17:53:00,
2013-07-28 14:03:00,91.0,77.0,26.41,SSW,202,4.0,7.0,63,0.00,,,0.00,,2013-07-28 18:03:00,
2013-07-28 14:12:00,91.0,77.0,26.41,SSW,202,4.0,6.0,63,0.00,,,0.00,,2013-07-28 18:12:00,
2013-07-28 14:22:00,91.0,77.0,26.41,SSW,202,4.0,7.0,63,0.00,,,0.00,,2013-07-28 18:22:00,
2013-07-28 14:33:00,91.0,75.0,26.41,SSW,200,3.0,7.0,60,0.00,,,0.00,,2013-07-28 18:33:00,
2013-07-28 14:43:00,91.0,76.0,26.41,SSW,198,6.0,10.0,62,0.00,,,0.00,,2013-07-28 18:43:00,
2013-07-28 14:52:00,91.0,76.0,26.41,SSW,199,4.0,7.0,61,0.00,,,0.00,,2013-07-28 18:52:00,
2013-07-28 15:02:00,91.0,76.0,26.41,SSW,199,2.0,6.0,62,0.00,,,0.00,,2013-07-28 19:02:00,
2013-07-28 15:12:00,91.0,76.0,26.41,SSW,199,4.0,7.0,62,0.00,,,0.00,,2013-07-28 19:12:00,
2013-07-28 15:22:00,91.0,75.0,26.41,SSW,199,4.0,6.0,60,0.00,,,0.00,,2013-07-28 19:22:00,
2013-07-28 15:33:00,91.0,76.0,26.41,SSW,199,2.0,6.0,61,0.00,,,0.00,,2013-07-28 19:33:00,
2013-07-28 15:43:00,92.0,77.0,26.41,SSW,199,3.0,4.0,62,0.00,,,0.00,,2013-07-28 19:43:00,
2013-07-28 15:52:00,91.0,76.0,26.41,SSW,198,4.0,6.0,61,0.00,,,0.00,,2013-07-28 19:52:00,
2013-07-28 16:02:00,92.0,77.0,26.41,SSW,196,4.0,6.0,62,0.00,,,0.00,,2013-07-28 20:02:00,
2013-07-28 16:13:00,92.0,77.0,26.41,SSW,194,5.0,6.0,61,0.00,,,0.00,,2013-07-28 20:13:00,
2013-07-28 16:23:00,92.0,76.0,26.41,South,171,4.0,7.0,59,0.00,,,0.00,,2013-07-28 20:23:00,
2013-07-28 16:33:00,92.0,76.0,26.41,South,171,3.0,7.0,59,0.00,,,0.00,,2013-07-28 20:33:00,
2013-07-28 16:43:00,91.0,75.0,26.41,South,171,0.0,6.0,60,0.00,,,0.00,,2013-07-28 20:43:00,
2013-07-28 16:52:00,91.0,76.0,26.41,SSE,150,5.0,10.0,62,0.00,,,0.00,,2013-07-28 20:52:00,
2013-07-28 17:03:00,92.0,78.0,26.41,SSE,152,8.0,9.0,63,0.00,,,0.00,,2013-07-28 21:03:00,
2013-07-28 17:13:00,92.0,77.0,26.41,SSE,156,7.0,10.0,61,0.00,,,0.00,,2013-07-28 21:13:00,
2013-07-28 17:22:00,92.0,76.0,26.41,SSE,156,4.0,7.0,60,0.00,,,0.00,,2013-07-28 21:22:00,
2013-07-28 17:33:00,93.0,77.0,26.41,SSE,156,5.0,9.0,60,0.00,,,0.00,,2013-07-28 21:33:00,
2013-07-28 17:44:00,92.0,76.0,26.41,SSE,155,3.0,8.0,59,0.00,,,0.00,,2013-07-28 21:44:00,
2013-07-28 17:52:00,92.0,77.0,26.41,SSE,153,4.0,9.0,62,0.00,,,0.00,,2013-07-28 21:52:00,
2013-07-28 18:02:00,93.0,78.0,26.41,SSE,158,6.0,11.0,62,0.00,,,0.00,,2013-07-28 22:02:00,
2013-07-28 18:12:00,92.0,77.0,26.41,SSE,156,5.0,7.0,61,0.00,,,0.00,,2013-07-28 22:12:00,
2013-07-28 18:22:00,91.0,75.0,26.41,SSE,158,4.0,10.0,60,0.00,,,0.00,,2013-07-28 22:22:00,
2013-07-28 18:32:00,91.0,75.0,26.41,SSE,168,2.0,7.0,60,0.00,,,0.00,,2013-07-28 22:32:00,
2013-07-28 18:43:00,91.0,76.0,26.41,SE,138,5.0,7.0,62,0.00,,,0.00,,2013-07-28 22:43:00,
2013-07-28 18:52:00,91.0,76.0,26.41,SSE,150,4.0,10.0,61,0.00,,,0.00,,2013-07-28 22:52:00,
2013-07-28 19:03:00,91.0,76.0,26.41,SSE,150,5.0,7.0,61,0.00,,,0.00,,2013-07-28 23:03:00,
2013-07-28 19:12:00,91.0,77.0,26.41,SSE,149,5.0,9.0,63,0.00,,,0.00,,2013-07-28 23:12:00,
2013-07-28 19:22:00,90.0,75.0,26.41,SSE,158,4.0,7.0,62,0.00,,,0.00,,2013-07-28 23:22:00,
2013-07-28 19:32:00,90.0,75.0,26.41,SSE,155,2.0,6.0,62,0.00,,,0.00,,2013-07-28 23:32:00,
2013-07-28 19:43:00,89.0,75.0,26.41,SSE,148,3.0,7.0,64,0.00,,,0.00,,2013-07-28 23:43:00,
2013-07-28 19:53:00,88.0,74.0,26.41,SSE,152,5.0,11.0,64,0.00,,,0.00,,2013-07-28 23:53:00,
2013-07-28 20:03:00,88.0,76.0,26.41,SSE,157,6.0,12.0,67,0.00,,,0.00,,2013-07-29 00:03:00,
2013-07-28 20:22:00,87.0,75.0,26.41,SE,139,7.0,10.0,68,0.00,,,0.00,,2013-07-29 00:22:00,
2013-07-28 20:32:00,87.0,75.0,26.41,South,175,6.0,8.0,68,0.00,,,0.00,,2013-07-29 00:32:00,
2013-07-28 20:43:00,86.0,75.0,26.41,South,177,3.0,7.0,69,0.00,,,0.00,,2013-07-29 00:43:00,
2013-07-28 20:52:00,86.0,75.0,26.41,South,176,3.0,7.0,70,0.00,,,0.00,,2013-07-29 00:52:00,
2013-07-28 21:02:00,85.0,74.0,26.41,South,176,4.0,5.0,70,0.00,,,0.00,,2013-07-29 01:02:00,
2013-07-28 21:14:00,85.0,75.0,26.41,South,176,0.0,5.0,71,0.00,,,0.00,,2013-07-29 01:14:00,
2013-07-28 21:28:00,85.0,75.0,26.41,South,175,2.0,7.0,71,0.00,,,0.00,,2013-07-29 01:28:00,
2013-07-28 21:36:00,85.0,75.0,26.41,South,175,2.0,7.0,71,0.00,,,0.00,,2013-07-29 01:36:00,
2013-07-28 21:45:00,84.0,74.0,26.41,South,175,3.0,5.0,72,0.00,,,0.00,,2013-07-29 01:45:00,
2013-07-28 21:57:00,84.0,74.0,26.41,South,175,0.0,3.0,73,0.00,,,0.00,,2013-07-29 01:57:00,
2013-07-28 22:05:00,84.0,75.0,26.41,South,175,3.0,6.0,74,0.00,,,0.00,,2013-07-29 02:05:00,
2013-07-28 22:14:00,84.0,75.0,26.41,South,175,3.0,7.0,75,0.00,,,0.00,,2013-07-29 02:14:00,
2013-07-28 22:26:00,84.0,76.0,26.41,SSE,168,4.0,7.0,76,0.00,,,0.00,,2013-07-29 02:26:00,
2013-07-28 22:47:00,84.0,76.0,26.41,SSE,167,5.0,6.0,76,0.00,,,0.00,,2013-07-29 02:47:00,
2013-07-28 23:04:00,84.0,75.0,26.41,SSE,163,2.0,5.0,75,0.00,,,0.00,,2013-07-29 03:04:00,
2013-07-28 23:17:00,84.0,76.0,26.41,SE,145,3.0,7.0,76,0.00,,,0.00,,2013-07-29 03:17:00,
2013-07-28 23:48:00,84.0,75.0,26.41,ESE,115,4.0,9.0,75,0.00,,,0.00,,2013-07-29 03:48:00,